[[{"header":{"parameterUnit":"m.s-1","parameterCategory":1,"la1":30.2991,"la2":30.254,"lo1":-89.0895,"lo2":-89.0444,"dy":0.0017,"dx":0.0017,"nx":28,"ny":28,"refTime":"2025-09-10T21:00:00:Z","depth":0,"parameterNumber":2,"parameterNumberName":"U-component_of_WINDS"},"data":[0,0,0,0,0,0,0,0,0,0,0,0,0,0,0,0,0,0,0,0,0,0,0,0,0,0,0,0,0,0,0,0,0,0,0,0,0,0,0,0,0,0,0,0,0,0,0,0,0,0,0,0,0,0,0,0,0,0,-0.3808,-0.3807,0,-0.3775,-0.3775,-0.3775,-0.3725,-0.3724,-0.3723,-0.3723,-0.369,-0.369,-0.369,0,0,0,0,0,0,0,0,0,0,0,0,0,-0.3828,-0.3828,-0.3808,-0.3807,-0.3807,-0.3775,-0.3775,-0.3774,-0.3725,-0.3724,-0.3723,-0.3722,-0.369,-0.369,-0.369,0,0,0,0,0,0,0,0,0,0,0,0,0,-0.381,-0.3828,-0.3808,-0.3779,-0.3776,-0.3775,-0.3775,-0.3774,-0.3725,-0.3724,-0.3723,-0.3722,-0.369,-0.369,-0.369,-0.3715,0,0,-0.3689,-0.3689,0,0,0,0,0,0,0,0,-0.3811,-0.3809,-0.3783,-0.3781,-0.3777,-0.3753,-0.377,-0.3755,-0.3726,-0.3745,-0.3722,-0.3721,-0.3712,-0.371,-0.3707,-0.3714,-0.3712,-0.3689,-0.3689,-0.3689,-0.3689,0,0,0,0,0,0,0,-0.3812,-0.381,-0.3795,-0.3783,-0.3779,-0.3767,-0.3763,-0.3767,-0.3736,-0.3743,-0.3739,-0.3736,-0.371,-0.3707,-0.3705,-0.3712,-0.3689,-0.3689,-0.3689,-0.3689,-0.374,-0.3741,0,0,0,0,0,0,-0.3818,-0.3811,-0.3796,-0.3794,-0.3791,-0.3768,-0.3763,-0.3762,-0.3736,-0.373,-0.3737,-0.3734,-0.3708,-0.3706,-0.3704,-0.3733,-0.3689,-0.3689,-0.3689,-0.3738,-0.374,-0.3741,0,0,0,0,0,0,-0.3818,-0.3817,-0.3797,-0.3802,-0.3798,-0.3769,-0.3768,-0.3762,-0.3759,-0.3731,-0.3726,-0.374,-0.3706,-0.3704,-0.3713,-0.3731,-0.3689,-0.3689,-0.3737,-0.3739,-0.3741,-0.3791,0,0,0,0,0,0,-0.3819,-0.3817,-0.3826,-0.3802,-0.3798,-0.3807,-0.3769,-0.3762,-0.3759,-0.3754,-0.3732,-0.3727,-0.3705,-0.3714,-0.3713,-0.373,-0.3689,-0.3735,-0.3738,-0.374,-0.3787,-0.3794,-0.38,0,0,0,0,0,-0.382,-0.3842,-0.3827,-0.3826,-0.3809,-0.3808,-0.3805,-0.3779,-0.3761,-0.377,-0.3752,-0.3728,-0.3729,-0.3715,-0.3714,-0.3731,-0.3734,-0.3737,-0.374,-0.3784,-0.3793,-0.38,0,0,0,0,0,0,-0.3869,-0.3838,-0.3821,-0.3836,-0.3825,-0.3799,-0.381,-0.3789,-0.3783,-0.3779,-0.3747,-0.3743,-0.3756,-0.3744,-0.3729,-0.3755,-0.3728,-0.3731,-0.3762,-0.377,-0.3776,-0.3779,-0.3689,0,0,0,0,0,-0.3881,-0.3882,-0.3856,-0.3871,-0.3866,-0.3839,-0.3838,-0.3819,-0.3806,-0.3801,-0.3784,-0.3773,-0.377,-0.377,-0.3766,-0.3786,-0.3781,-0.3797,-0.3804,-0.3809,-0.3812,-0.3822,-0.383,-0.3752,-0.3752,-0.3752,0,0,-0.3907,-0.389,-0.3893,-0.388,-0.3869,-0.3872,-0.3836,-0.3839,-0.3841,-0.3801,-0.3809,-0.3796,-0.3781,-0.3796,-0.3802,-0.3787,-0.3833,-0.3813,-0.3818,-0.3818,-0.3826,-0.3834,-0.384,-0.3754,-0.3753,-0.3753,0,0,-0.3955,-0.3942,-0.3954,-0.3944,-0.3928,-0.391,-0.3913,-0.3891,-0.3881,-0.3888,-0.3859,-0.386,-0.3857,-0.3848,-0.3843,-0.3889,-0.3866,-0.3889,-0.3922,-0.3932,-0.3938,-0.3944,-0.396,-0.3967,-0.3892,-0.3892,-0.3892,0,-0.3989,-0.3991,-0.3963,-0.3968,-0.3964,-0.3929,-0.3941,-0.3933,-0.3916,-0.3914,-0.3898,-0.3894,-0.3882,-0.3894,-0.3905,-0.3902,-0.3905,-0.3891,-0.394,-0.3945,-0.3949,-0.3965,-0.3971,-0.3895,-0.3894,-0.3894,-0.3894,0,-0.4033,-0.4035,-0.4047,-0.4032,-0.4029,-0.4038,-0.4012,-0.4012,-0.3994,-0.3978,-0.3986,-0.397,-0.3963,-0.3964,-0.3947,-0.3974,-0.3966,-0.3946,-0.3917,-0.396,-0.3974,-0.398,-0.3899,-0.3898,-0.3897,-0.3896,0,0,-0.411,-0.4081,-0.4085,-0.4079,-0.4059,-0.406,-0.4068,-0.4061,-0.4062,-0.4052,-0.4058,-0.4057,-0.4038,-0.4032,-0.4013,-0.4022,-0.406,-0.4,-0.4,-0.4012,-0.409,-0.4106,-0.4113,-0.4045,-0.4046,-0.4047,-0.4091,0,-0.4154,-0.4165,-0.4141,-0.4158,-0.4159,-0.4127,-0.4133,-0.4122,-0.4108,-0.4108,-0.4092,-0.4091,-0.4066,-0.4063,-0.407,-0.4054,-0.4075,-0.405,-0.4051,-0.4051,-0.4055,-0.412,-0.4136,-0.4179,-0.4097,-0.4098,-0.4098,0,-0.4206,-0.42,-0.4217,-0.4197,-0.4197,-0.4203,-0.4195,-0.4195,-0.4182,-0.4171,-0.4166,-0.4143,-0.415,-0.4123,-0.4132,-0.4116,-0.4115,-0.4107,-0.4108,-0.4107,-0.4077,-0.4121,-0.4192,-0.4198,-0.4107,-0.4106,-0.4105,0,-0.4261,-0.4256,-0.4266,-0.4261,-0.4238,-0.4243,-0.4234,-0.422,-0.4217,-0.4211,-0.4209,-0.4203,-0.42,-0.4197,-0.4174,-0.4156,-0.4186,-0.4157,-0.4177,-0.4178,-0.4184,-0.4184,-0.4256,-0.4184,-0.4184,-0.4184,-0.4184,0,-0.4312,-0.4324,-0.429,-0.4296,-0.4309,-0.4281,-0.4295,-0.4282,-0.427,-0.4273,-0.4245,-0.4249,-0.4218,-0.4219,-0.4201,-0.4212,-0.4211,-0.4202,-0.4197,-0.4204,-0.4206,-0.4203,-0.4199,-0.4185,-0.4185,-0.4185,-0.4184,0,-0.4375,-0.4353,-0.4361,-0.4339,-0.4333,-0.4344,-0.4325,-0.433,-0.4314,-0.4319,-0.4318,-0.4293,-0.4293,-0.427,-0.4265,-0.4253,-0.4271,-0.426,-0.4275,-0.4272,-0.4293,-0.4291,-0.4366,-0.4374,-0.4297,-0.4298,-0.4298,0,-0.4409,-0.4418,-0.4396,-0.4396,-0.4388,-0.4389,-0.4387,-0.436,-0.4359,-0.4345,-0.4352,-0.4349,-0.4346,-0.4347,-0.4328,-0.4324,-0.4314,-0.434,-0.4313,-0.432,-0.4314,-0.4314,-0.4315,-0.4346,-0.4347,-0.4348,-0.4348,0,-0.4472,-0.4461,-0.4458,-0.4452,-0.445,-0.4444,-0.4437,-0.4439,-0.4409,-0.441,-0.4409,-0.4406,-0.4401,-0.4399,-0.4392,-0.4382,-0.4361,-0.4357,-0.4361,-0.4369,-0.4377,-0.4373,-0.429,-0.4355,-0.4355,-0.4354,-0.4354,-0.4353,-0.4522,-0.4528,-0.4514,-0.4512,-0.4504,-0.4497,-0.4501,-0.4486,-0.4485,-0.4478,-0.4463,-0.4465,-0.4452,-0.4441,-0.4433,-0.4435,-0.4421,-0.4428,-0.4429,-0.4432,-0.4436,-0.4377,-0.4433,-0.4433,-0.4433,-0.4433,-0.4432,0,-0.4583,-0.4573,-0.4572,-0.4562,-0.4561,-0.4541,-0.4531,-0.4532,-0.4534,-0.4524,-0.4521,-0.4521,-0.4519,-0.4501,-0.4497,-0.4501,-0.4492,-0.4501,-0.4501,-0.4499,-0.4448,-0.4444,-0.4509,-0.4509,-0.4509,-0.4509,-0.4509,-0.4509,-0.4615,-0.4625,-0.4612,-0.4618,-0.4607,-0.4608,-0.4605,-0.4599,-0.4591,-0.4592,-0.459,-0.4578,-0.4566,-0.4561,-0.4558,-0.4553,-0.4553,-0.4566,-0.4558,-0.451,-0.4502,-0.4495,-0.4492,-0.4566,-0.4566,-0.4609,-0.4609,-0.4609]},{"header":{"parameterUnit":"m.s-1","parameterCategory":1,"la1":30.2991,"la2":30.254,"lo1":-89.0895,"lo2":-89.0444,"dy":0.0017,"dx":0.0017,"nx":28,"ny":28,"refTime":"2025-09-10T21:00:00:Z","depth":0,"parameterNumber":3,"parameterNumberName":"V-component_of_WINDS"},"data":[0,0,0,0,0,0,0,0,0,0,0,0,0,0,0,0,0,0,0,0,0,0,0,0,0,0,0,0,0,0,0,0,0,0,0,0,0,0,0,0,0,0,0,0,0,0,0,0,0,0,0,0,0,0,0,0,0,0,0.7184,0.7183,0,0.7101,0.71,0.7099,0.7065,0.7066,0.7066,0.7066,0.6976,0.6974,0.6971,0,0,0,0,0,0,0,0,0,0,0,0,0,0.7311,0.7308,0.7184,0.7183,0.7182,0.7101,0.71,0.7098,0.7065,0.7066,0.7066,0.7066,0.6977,0.6974,0.6971,0,0,0,0,0,0,0,0,0,0,0,0,0,0.7244,0.7308,0.7184,0.7156,0.7152,0.7101,0.71,0.7098,0.7065,0.7066,0.7066,0.7066,0.6978,0.6974,0.697,0.694,0,0,0.6958,0.6957,0,0,0,0,0,0,0,0,0.7248,0.724,0.7161,0.7158,0.7154,0.7094,0.7111,0.7045,0.7065,0.7098,0.7066,0.7066,0.7015,0.7008,0.6991,0.6936,0.6932,0.6958,0.6956,0.6954,0.6953,0,0,0,0,0,0,0,0.7253,0.7243,0.7151,0.716,0.7155,0.7146,0.7137,0.7098,0.7055,0.7095,0.7093,0.7084,0.7013,0.6995,0.6989,0.693,0.6958,0.6955,0.6952,0.6951,0.6845,0.6844,0,0,0,0,0,0,0.7263,0.7247,0.7154,0.7148,0.7203,0.7143,0.7133,0.7113,0.7056,0.7048,0.7083,0.7082,0.7002,0.6993,0.6986,0.6946,0.6954,0.695,0.6948,0.6845,0.6845,0.6844,0,0,0,0,0,0,0.7265,0.7255,0.7157,0.7197,0.7184,0.7141,0.7118,0.7111,0.7093,0.7047,0.7039,0.7074,0.7002,0.6991,0.6952,0.6942,0.6949,0.6945,0.6846,0.6845,0.6844,0.6866,0,0,0,0,0,0,0.7269,0.7256,0.7245,0.7197,0.7182,0.7126,0.7117,0.7109,0.7087,0.7085,0.7035,0.7027,0.7001,0.6958,0.6948,0.6937,0.6942,0.6846,0.6845,0.6845,0.6866,0.6866,0.6867,0,0,0,0,0,0.7274,0.7253,0.7244,0.7233,0.7167,0.7125,0.7116,0.7088,0.7087,0.7074,0.7045,0.7029,0.6945,0.6954,0.6942,0.693,0.6847,0.6846,0.6845,0.6866,0.6866,0.6867,0,0,0,0,0,0,0.7299,0.7247,0.7236,0.72,0.7168,0.712,0.7104,0.7089,0.7055,0.7054,0.7019,0.7008,0.6971,0.6946,0.6957,0.6897,0.6895,0.6891,0.6915,0.6915,0.6915,0.6921,0.6939,0,0,0,0,0,0.7301,0.7273,0.7228,0.72,0.7184,0.7147,0.7127,0.7108,0.7073,0.7058,0.7026,0.699,0.6956,0.6934,0.69,0.6863,0.6851,0.6849,0.6849,0.6849,0.6846,0.6824,0.6823,0.684,0.684,0.684,0,0,0.7304,0.7272,0.7256,0.7204,0.7177,0.7147,0.7136,0.7104,0.7081,0.7053,0.7014,0.6989,0.6947,0.6909,0.689,0.6887,0.6839,0.6848,0.6848,0.6845,0.6823,0.6821,0.682,0.684,0.684,0.684,0,0,0.7294,0.7267,0.7241,0.7214,0.7173,0.7148,0.7142,0.7097,0.7079,0.704,0.7018,0.699,0.6931,0.6902,0.688,0.6859,0.6843,0.6849,0.685,0.6829,0.6827,0.6826,0.6818,0.6815,0.6846,0.6846,0.6846,0,0.7302,0.7257,0.7229,0.7199,0.7177,0.7151,0.7124,0.7099,0.7048,0.7033,0.7031,0.6957,0.6927,0.6882,0.6877,0.686,0.685,0.6854,0.683,0.6828,0.6826,0.6818,0.6815,0.6847,0.6847,0.6847,0.6847,0,0.7269,0.7239,0.7222,0.7176,0.7152,0.7123,0.7089,0.7068,0.705,0.7026,0.6985,0.6949,0.6907,0.6894,0.6877,0.6846,0.6845,0.6837,0.6833,0.6826,0.6818,0.6815,0.6849,0.6848,0.6848,0.6848,0,0,0.7273,0.7211,0.7206,0.7184,0.7137,0.7112,0.7082,0.7043,0.7025,0.6991,0.6964,0.6915,0.6907,0.6882,0.6861,0.6843,0.6828,0.6836,0.6835,0.6836,0.6791,0.6797,0.6794,0.6817,0.6817,0.6816,0.6794,0,0.7256,0.7202,0.7176,0.7133,0.7104,0.708,0.7053,0.7021,0.6997,0.6967,0.694,0.6906,0.6899,0.6883,0.6864,0.6834,0.6818,0.6835,0.6791,0.6789,0.6802,0.679,0.6796,0.6777,0.6791,0.679,0.679,0,0.7229,0.7197,0.7152,0.7109,0.7095,0.7072,0.7034,0.7006,0.6969,0.6952,0.6925,0.6904,0.687,0.6869,0.6821,0.6833,0.6814,0.6796,0.6795,0.6789,0.6789,0.6783,0.6771,0.6768,0.6784,0.6785,0.6785,0,0.7236,0.7181,0.7147,0.7129,0.7078,0.7062,0.704,0.7003,0.698,0.6946,0.6931,0.6893,0.6872,0.6842,0.6811,0.6813,0.6766,0.6763,0.675,0.6751,0.6741,0.6742,0.6724,0.6729,0.6729,0.6729,0.6729,0,0.7219,0.7193,0.7149,0.7128,0.7097,0.7066,0.7036,0.7011,0.6979,0.6952,0.6927,0.6902,0.6863,0.6833,0.6808,0.6772,0.6763,0.6748,0.6741,0.6749,0.6751,0.6736,0.6736,0.6728,0.6728,0.6729,0.6729,0,0.7221,0.7191,0.7152,0.7107,0.7095,0.7074,0.7035,0.7013,0.6988,0.6954,0.6944,0.6904,0.6867,0.6834,0.6784,0.6767,0.673,0.6722,0.6743,0.674,0.6729,0.673,0.6701,0.6695,0.6704,0.6704,0.6704,0,0.7213,0.7192,0.7145,0.7126,0.7104,0.7073,0.7051,0.7019,0.6997,0.6952,0.6935,0.6897,0.6864,0.6806,0.6772,0.6733,0.6724,0.6716,0.6718,0.6727,0.6723,0.6725,0.6722,0.6716,0.6716,0.6717,0.6717,0,0.7201,0.7187,0.7156,0.712,0.7094,0.7064,0.7033,0.7018,0.698,0.6956,0.6918,0.6893,0.6843,0.6805,0.6763,0.6738,0.672,0.6716,0.6711,0.6719,0.6732,0.6725,0.6743,0.6717,0.6717,0.6717,0.6717,0.6717,0.7197,0.7177,0.7141,0.7107,0.7081,0.7052,0.703,0.7002,0.6971,0.6929,0.6911,0.6873,0.6835,0.6777,0.6753,0.6721,0.6718,0.6711,0.6709,0.6707,0.6709,0.6738,0.6713,0.6713,0.6713,0.6713,0.6713,0,0.7183,0.7159,0.7129,0.7086,0.706,0.7047,0.7012,0.699,0.6957,0.6924,0.6893,0.685,0.6812,0.6775,0.6736,0.6718,0.6708,0.6708,0.6709,0.6703,0.6714,0.6722,0.6716,0.6716,0.6716,0.6716,0.6716,0.6716,0.7173,0.7139,0.7121,0.7073,0.7048,0.7012,0.6993,0.6966,0.6939,0.6892,0.6862,0.6839,0.6803,0.6761,0.6726,0.6716,0.6702,0.6704,0.6691,0.6702,0.6702,0.6703,0.671,0.6701,0.6701,0.6683,0.6683,0.6683]}]]